Location: Tyler Bend Campground
(35.9875°N, 92.7606°W)
Time: 15:21:48
(UTC-06:00)

CZ-2C R/B - Visible Passes

Search period start: 20 November 2017 00:00
Search period end: 30 November 2017 00:00
Orbit: 669 x 784 km, 98.1° (Epoch: 19 November)

Date Brightness Start Highest point End Pass type
(mag) Time Alt. Az. Time Alt. Az. Time Alt. Az.
20 Nov 5.3 04:38:51 10° NE 04:42:12 17° E 04:45:29 10° SE visible
20 Nov 2.7 06:15:42 10° N 06:20:40 48° WNW 06:25:30 10° SW visible
20 Nov 3.4 17:21:43 10° S 17:26:32 56° W 17:31:32 10° NNW visible
21 Nov 3.2 05:27:41 10° NNE 05:32:46 56° E 05:37:42 10° S visible
21 Nov 5.5 18:13:57 10° SW 18:17:07 17° W 18:20:21 10° NW visible
22 Nov 5.2 04:41:02 10° NE 04:44:31 18° E 04:47:56 10° SE visible
22 Nov 2.8 06:18:02 10° N 06:22:57 45° WNW 06:27:43 10° SW visible
22 Nov 3.5 17:24:01 10° S 17:28:50 52° W 17:33:50 10° NNW visible
23 Nov 3.1 05:29:58 10° NNE 05:35:04 59° E 05:40:00 10° S visible
23 Nov 5.5 18:16:25 10° SW 18:19:25 16° W 18:22:31 10° NW visible
24 Nov 5.2 04:43:13 10° NE 04:46:50 19° E 04:50:22 10° SE visible
24 Nov 2.8 06:20:23 10° N 06:25:13 42° WNW 06:29:55 10° SW visible
24 Nov 3.6 17:26:19 10° S 17:31:08 49° W 17:36:07 10° NNW visible
25 Nov 3.0 05:32:16 10° NNE 05:37:22 63° E 05:42:18 10° S visible
25 Nov 5.6 18:18:53 10° SW 18:21:45 15° W 18:24:39 10° WNW visible
26 Nov 5.1 04:45:25 10° NE 04:49:09 20° E 04:52:47 10° SE visible
26 Nov 2.9 06:22:44 10° N 06:27:30 40° WNW 06:32:07 10° SW visible
26 Nov 3.8 17:28:38 10° S 17:33:27 47° W 17:38:23 10° NNW visible
27 Nov 2.9 05:34:34 10° NNE 05:39:40 67° ESE 05:44:34 10° S visible
27 Nov 5.6 18:21:23 10° WSW 18:24:04 14° W 18:26:47 10° WNW visible
28 Nov 5.0 04:47:38 10° NE 04:51:28 21° E 04:55:11 10° SE visible
28 Nov 3.0 06:25:06 10° N 06:29:47 37° WNW 06:34:19 10° SW visible
28 Nov 3.9 17:30:57 10° S 17:35:44 44° W 17:40:41 10° NNW visible
29 Nov 2.7 05:36:52 10° NNE 05:41:57 71° E 05:46:51 10° S visible
29 Nov 5.7 18:23:55 10° WSW 18:26:23 14° W 18:28:54 10° WNW visible
